Capitol Logistics 411




KMSP
Minneapolis-St Paul International Airport
Minneapolis, Minnesota
KRFD
Chicago/Rockford International Airport
Rockford, Illinois

Activity Log

Date Flight Route Aircraft Duration
04/30/2021 CPX411 ZMBRO7 ODI J30 COTON RFD B738 1h 01m
12/23/2019 CPX411 N0416F350 ZMBRO7 ODI JVL V128 RFD B738 0h 49m
11/20/2019 CPX411 N0362F270 ZMBRO7 ODI JVL V128 RFD B738 1h 08m
11/16/2019 CPX411 N0323A110 ZMBRO7 ODI JVL V128 RFD B738 0h 57m
10/14/2019 CPX411 ZMBRO7 ODI J30 COTON RFD B738 0h 51m
08/26/2019 CPX411 ZMBRO7 ODI J30 COTON RFD B738 0h 55m
08/07/2019 CPX411 ZMBRO7 ODI J30 COTON RFD B738 1h 07m
07/22/2019 CPX411 ZMBRO7 ODI J30 COTON RFD B738 0h 52m
06/26/2019 CPX411 ZMBRO7 ODI J30 COTON RFD B738 0h 57m
03/09/2019 CPX411 ZMBRO7 ODI J30 COTON RFD B752 0h 54m

Route Details

Aircraft Information
Primary: Boeing 737-800BCF
Backup: Boeing 757-200SF
Route Data
Distance: 278nm
Duration: 0h 40m
Recm'd Route: ZMBRO7 ODI J30 COTON RFD
Origin Wx: KMSP 020453Z 00000KT 10SM CLR 20/11 A3018 RMK AO2 SLP216 T02000106
Dest. Wx: KRFD 020454Z 00000KT 10SM CLR 17/12 A3017 RMK AO2 SLP212 T01720122 $
Notes: